Location: Lane County Rural Fire Department Beeler Station
(38.4456°N, 100.1929°W)
Time: 12:48:15
(UTC+00:00)

Daily predictions for brighter satellites

Satellite Brightness Start Highest point End
(mag) Time Altitude Azimuth Time Altitude Azimuth Time Altitude Azimuth
CZ-2C R/B 4.3 12:01:50 10° NW 12:03:00 12° NW 12:03:00 12° NW
Cosmos 2360 Rocket 2.5 12:02:25 10° NW 12:07:47 44° WSW 12:13:07 10° S
Cosmos 1933 3.5 12:08:40 10° SSW 12:12:33 49° W 12:16:29 10° N
SJ-12 4.2 12:09:11 10° N 12:13:04 44° WNW 12:16:55 10° SW
Meteor 1-26 Rocket 4.3 12:08:41 10° S 12:14:18 88° E 12:20:08 10° N
Cosmos 1633 Rocket 3.2 12:11:16 10° N 12:15:41 80° E 12:20:02 10° S
Cosmos 407 Rocket 3.5 12:13:04 10° SSW 12:18:17 86° WNW 12:23:29 10° NNE
CZ-2C R/B 4.4 12:13:22 10° SE 12:18:26 37° ENE 12:23:33 10° N
Cosmos 1151 Rocket 2.9 12:14:42 10° SSW 12:19:00 72° W 12:23:20 10° N
USA 238 DEB 3.9 12:11:44 10° NW 12:19:07 85° WSW 12:26:46 10° SSE
USA 238 3.9 12:11:51 10° NW 12:19:13 86° WSW 12:26:51 10° SSE
Cosmos 909 Rocket 4.2 12:12:42 10° SW 12:19:25 56° WNW 12:25:36 10° NNE
Cosmos 2333 Rocket 2.2 12:14:42 10° NNW 12:20:30 84° WSW 12:26:15 10° SSE
Cosmos 1606 4.3 12:20:38 14° W 12:22:01 16° WNW 12:24:31 10° NNW
Cosmos 1190 Rocket 4.2 12:19:48 10° SSW 12:25:06 83° ESE 12:30:27 10° NNE
ALOS 4.0 12:23:29 10° NNW 12:25:57 14° WNW 12:28:08 11° W
MOS 1 Rocket 3.4 12:21:56 10° S 12:26:01 43° W 12:30:16 10° NNW
X-37B 2.9 12:25:08 10° WSW 12:26:05 11° SW 12:27:04 10° SSW
Cosmos 2227 Rocket 4.4 12:21:28 10° SSE 12:26:19 30° ESE 12:31:10 10° NE
Cosmos 614 Rocket 4.5 12:22:19 10° SW 12:27:11 39° WNW 12:32:05 10° N
CZ-4B R/B 3.3 12:26:49 10° N 12:31:11 52° WNW 12:35:34 10° SSW
ISS -1.1 12:30:00 10° N 12:31:32 12° NNE 12:33:05 10° NE
Meteor PRIRODA 3.9 12:28:46 10° N 12:32:21 47° WNW 12:35:56 10° SSW
Cosmos 1602 3.7 12:33:03 10° NNW 12:36:56 62° W 12:40:47 10° S
Cosmos 2322 Rocket 3.8 12:35:25 10° WNW 12:37:39 12° W 12:39:53 10° WSW
SAR-Lupe-4 3.9 12:34:16 10° SSE 12:37:49 72° ENE 12:41:23 10° N
Cosmos 1500 3.9 12:36:38 10° N 12:40:23 60° E 12:44:08 10° SSE
BREEZE-M DEB (TANK) 4.1 12:38:32 10° W 12:41:01 28° SSW 12:46:25 10° SSE
NOAA 6 4.5 12:35:57 10° NNE 12:41:05 70° ESE 12:46:11 10° S
Cosmos 2297 Rocket 3.2 12:36:46 10° S 12:42:13 54° ESE 12:47:43 10° NNE
Nadezhda 1 Rocket 4.0 12:36:47 10° S 12:42:51 77° W 12:49:04 10° N
Cosmos 1515 Rocket 3.5 12:38:39 10° S 12:42:58 87° W 12:47:21 10° N
NOSS 0 Rocket 4.4 12:41:24 10° NNW 12:47:33 68° ENE 12:53:42 10° SSE
